Printer-friendly version

IAU Minor Planet Center

Minor Planet Center

MPEC 1999-L42: 1999 FQ5

The following Minor Planet Electronic Circular may be linked-to from your own Web pages, but must not otherwise be redistributed electronically.


Read MPEC 1999-L41 Read MPEC 1999-M01


M.P.E.C. 1999-L42                                Issued 1999 June 15, 19:22 UT

     The Minor Planet Electronic Circulars contain information on unusual
         minor planets and routine data on comets.  They are published
   on behalf of Commission 20 of the International Astronomical Union by the
          Minor Planet Center, Smithsonian Astrophysical Observatory,
                          Cambridge, MA 02138, U.S.A.

             BMARSDEN@CFA.HARVARD.EDU or GWILLIAMS@CFA.HARVARD.EDU
          URL http://cfa-www.harvard.edu/iau/mpc.html  ISSN 1523-6714

                                   1999 FQ5

                           Revision to MPEC 1999-F20

Observations:
     J99F05Q 2 1994 09 02.37517 23 09 32.58 +17 37 50.3          16.0 V      675
     J99F05Q 2 1994 09 02.39722 23 09 32.93 +17 36 14.5                      675
     J99F05Q 2 1994 09 05.39722 23 11 05.91 +13 42 43.9                      675

Observer details:
675 Palomar Mountain.  Observers E. F. Helin, K. J. Lawrence.  Measurer
    K. J. Lawrence.  0.46-m Schmidt.

Orbital elements:
1999 FQ5
Epoch 1999 Aug. 10.0 TT = JDT 2451400.5                 Williams
M 230.82921              (2000.0)            P               Q
n   0.53921127     Peri.  198.52221     +0.97623499     -0.20993284
a   1.4949617      Node   172.91136     +0.20803120     +0.97734982
e   0.1610255      Incl.   25.84184     -0.06073103     -0.02674958
P   1.83           H   17.6           G   0.15           U   4
Residuals in seconds of arc
940902 675  1.5+  0.6+    990320 658  0.6-  1.0+    990322 859  0.5-  0.4-
940902 675  0.0   2.4+    990320 658  0.2-  1.1+    990322 684  0.4+  0.8-
940905 675  1.5-  3.6-    990320 658  1.1-  2.0+    990322 684  0.2-  0.6-
990318 691  0.5-  0.1-    990320 691  0.0   0.5-    990322 684  0.8+  0.3-
990318 691  0.1+  0.4-    990320 691  0.2-  0.3-    990322 691  0.1+  0.4-
990318 691 (2.6+  1.8-)   990320 691  0.2-  0.2-    990322 691  0.2+  0.3-
990319 046  0.5+  0.1-    990320 587  0.3+  0.7-    990323 704  0.8+  3.2+
990319 046  0.1+  0.1-    990320 587  1.6+  0.5+    990323 704  1.1+  1.9+
990319 046  0.2-  0.5-    990320 118  0.0   0.3-    990323 704 (2.5-  1.3-)
990319 046  0.8-  0.3+    990320 118  0.0   0.0     990323 704 (3.2-  1.1+)
990319 046  0.1-  0.2-    990320 118  1.1-  0.1-    990324 691  1.1-  0.3-
990319 691  0.0   0.3-    990321 859  0.4-  0.0     990324 691  1.1-  0.3-
990319 691  0.2+  0.4-    990321 859  0.6+  0.0     990324 691  1.0-  0.1-
990319 691  0.1+  0.5-    990321 859  0.1+  0.7-    990409 691  0.8+  0.1+
990319 104  0.2-  0.6+    990321 734  0.9+  0.8-    990409 691  0.7+  0.2-
990319 104  0.2+  0.3-    990321 734  1.5-  0.7-    990409 691  0.6+  0.2-
990319 104  0.4-  0.2-    990321 658  0.1+  0.2+    990524 693  0.3-  0.1+
990320 704  0.6+  0.0     990321 658  0.4+  0.5+    990524 693  0.3-  0.1+
990320 704  1.7+  0.7-    990321 658  0.3+  1.1+    990524 693  0.3-  0.3-
990320 704  1.8+  0.5-    990322 859  0.5-  0.4-
990320 704  1.4-  0.7-    990322 859  0.5-  0.0

Gareth V. Williams           (C) Copyright 1999 MPC           M.P.E.C. 1999-L42

Read MPEC 1999-L41 Read MPEC 1999-M01


Our Web policy. Index to the CBAT/MPC/ICQ pages.


Valid HTML 4.01!